St Catherine Internationa, Egypt

2:54 PM EET on April 19, 2018 (GMT +0200)
St Catherine Internationa

Weather History for HESC - February, 2014

Change the Weather History Date:

Tuesday, February 4, 2014

  Actual Average Record
Temperature  
Mean Temperature 48 °F -  
Max Temperature 55 °F - - ()
Min Temperature 41 °F - - ()
Degree Days  
Heating Degree Days 17    
Moisture  
Dew Point 36 °F    
Average Humidity 67    
Maximum Humidity 100    
Minimum Humidity 38    
Precipitation  
Precipitation 0.00 in - - ()
Sea Level Pressure  
Sea Level Pressure 30.12 in    
Wind  
Wind Speed 9 mph ()    
Max Wind Speed 17 mph    
Max Gust Speed -    
Visibility 6.2 miles    
Events      
T = Trace of Precipitation, MM = Missing Value Source: Averaged Metar Reports

Daily Weather History Graph

Daily Weather History Graph

Search for Another Location

Airport or City:

Trip Planner

Search our weather history database for the weather conditions in past years. The results will help you decide how hot, cold, wet, or windy it might be!

Date:

Astronomy

Feb. 04, 2014 Rise Set
Actual Time 6:30 AM EET 5:25 PM EET
Civil Twilight 6:05 AM EET 5:49 PM EET
Nautical Twilight 5:37 AM EET 6:18 PM EET
Astronomical Twilight 5:09 AM EET 6:45 PM EET
Moon 9:24 AM EET (2/4) 10:26 PM EET (2/4)
Length of Visible Light 11h 44m
Length of Day
10h 54m
Waxing Crescent, 26% of the Moon is Illuminated
Feb 4
Waxing Crescent
Feb 6
First Quarter
Feb 15
Full
Feb 22
Last Quarter
Mar 1
New

Hourly Weather History & Observations

Time (EET) Temp. Windchill Dew Point Humidity Pressure Visibility Wind Dir Wind Speed Gust Speed Precip Events Conditions
12:00 AM 42.8 °F - 39.2 °F 87% 30.09 in - Calm Calm - N/A   Clear
1:00 AM 42.8 °F 36.2 °F 39.2 °F 87% 30.09 in - WSW 12.7 mph - N/A   Clear
2:00 AM 41.0 °F 35.2 °F 37.4 °F 87% 30.09 in - West 9.2 mph - N/A   Clear
3:00 AM 44.6 °F 39.2 °F 35.6 °F 71% 30.09 in - WNW 10.4 mph - N/A   Clear
5:00 AM 42.8 °F 35.4 °F 39.2 °F 87% 30.09 in - West 15.0 mph - N/A   Clear
6:00 AM 41.0 °F 33.9 °F 41.0 °F 100% 30.09 in 6.2 mi WNW 12.7 mph - N/A   Partly Cloudy
7:00 AM 41.0 °F 33.9 °F 41.0 °F 100% 30.09 in 6.2 mi WNW 12.7 mph - N/A   Scattered Clouds
8:00 AM 44.6 °F 39.7 °F 39.2 °F 81% 30.12 in - WNW 9.2 mph - N/A   Clear
11:00 AM 50.0 °F - 39.2 °F 66% 30.15 in 6.2 mi NW 9.2 mph - N/A   Partly Cloudy
12:00 PM 53.6 °F - 35.6 °F 51% 30.12 in 6.2 mi WNW 8.1 mph - N/A   Partly Cloudy
1:00 PM 53.6 °F - 32.0 °F 44% 30.12 in - West 17.3 mph - N/A   Clear
2:00 PM 55.4 °F - 32.0 °F 41% 30.09 in - West 15.0 mph - N/A   Clear
3:00 PM 55.4 °F - 30.2 °F 38% 30.09 in 6.2 mi NNW 13.8 mph - N/A   Partly Cloudy
4:00 PM 53.6 °F - 28.4 °F 38% 30.09 in 6.2 mi WNW 16.1 mph - N/A   Partly Cloudy
5:00 PM 51.8 °F - 30.2 °F 44% 30.15 in - NNW 6.9 mph - N/A   Clear
6:00 PM 50.0 °F - 32.0 °F 50% 30.15 in - NW 11.5 mph - N/A   Clear
7:00 PM 46.4 °F 41.9 °F 35.6 °F 66% 30.15 in - NW 9.2 mph - N/A   Clear
8:00 PM 46.4 °F 41.9 °F 35.6 °F 66% 30.18 in - NNW 9.2 mph - N/A   Clear
9:00 PM 46.4 °F 41.5 °F 35.6 °F 66% 30.18 in - NNW 10.4 mph - N/A   Clear
10:00 PM 44.6 °F 40.2 °F 35.6 °F 71% 30.18 in - West 8.1 mph - N/A   Clear
11:00 PM 44.6 °F 39.7 °F 37.4 °F 76% 30.18 in - West 9.2 mph - N/A   Clear